Alliance, NE

5:48 AM MST on November 26, 2014 (GMT -0700)
Alliance Municipal | Change Station
CLOSE
Current Station
Airport
Location: Alliance,
Elevation: 3930 ft
Nearby Weather Stations

Elev 3930 ft 42.06 °N, 102.80 °W | Updated 55 minutes ago

Overcast
Overcast
25 °F
Feels Like 14 °F
N
13
Wind Variable Wind from North

Today
High -- | Low -- °F
--% Chance of Precip.
Yesterday
High -- | Low -- °F
Precip. -- in
6:54 AM 4:22 PM
Waxing Crescent, 19% visible
Pressure 30.23 in
Visibility 10.0 miles
Clouds Few 2300 ft
Overcast 10000 ft
Windchill 14 °F
Dew Point 20 °F
Humidity 81%
Rainfall 0.00 in
Snow Depth Not available.
UV 0 out of 12
Pollen .10 out of 12
Air Quality Not available.
Flu Activity Not available.
METAR KAIA 261153Z AUTO 36011KT 10SM FEW023 OVC100 M04/M07 A3016 RMK AO2 SLP236 T10391067 10006 21039 52028

More Conditions Fewer Conditions

Pressure 30.23 in
Visibility 10.0 miles
Clouds Few 2300 ft
Overcast 10000 ft
Windchill 14 °F
Dew Point 20 °F
Humidity 81%
Rainfall 0.00 in
Snow Depth Not available.
UV 0 out of 12
Pollen .10 out of 12
Air Quality Not available.
Flu Activity Not available.
METAR KAIA 261153Z AUTO 36011KT 10SM FEW023 OVC100 M04/M07 A3016 RMK AO2 SLP236 T10391067 10006 21039 52028

More Conditions Fewer Conditions

10-Day Weather Forecast

Almanac

Astronomy

Nov. 26, 2014 Rise Set
Actual Time
Civil Twilight
Nautical Twilight
Astronomical Twilight
Moon
Length of Visible Light
Length of Day
Tomorrow will be .
, % of the Moon is Illuminated

Today's Extremes

State Highs State Lows

Community

WunderPhotos

Upload Photos

1,773,715 photos uploaded!

WunderBlogs® & News

Nearby

Air Quality

  Air Quality AQ Index Pollutant
Not available.

Snow Depth

Station Depth Elevation

Earthquake Activity

City Distance Mag. Time & Date
Minimum magnitude displayed is 2.5.

Coastal Water Temperatures

Place Temperature

Nearby Weather Stations